Goodland, KS

9:32 AM MST on January 18, 2017 (GMT -0700)
Renner-Goodland Municipal

Weather History for KGLD - April, 2013

Change the Weather History Date:

Thursday, April 11, 2013

  Actual Average Record
Temperature  
Mean Temperature 33 °F 48 °F  
Max Temperature 51 °F 62 °F 87 °F (1916)
Min Temperature 15 °F 33 °F 11 °F (1997)
Degree Days  
Heating Degree Days 32 17  
Month to date heating degree days 249 207  
Since 1 July heating degree days 5379 5382  
Cooling Degree Days 0 0  
Month to date cooling degree days 0 0  
Year to date cooling degree days 0 0  
Moisture  
Dew Point 20 °F    
Average Humidity 62    
Maximum Humidity 92    
Minimum Humidity 31    
Precipitation  
Precipitation 0.00 in 0.05 in 2.00 in (1922)
Month to date precipitation 0.04 0.49  
Year to date precipitation 2.34 2.43  
Snow  
Snow 0.00 in 0.20 in - ()
Month to date snowfall 0.8 2.2  
Since 1 July snowfall 43.8 33.0  
Snow Depth 0.00 in    
Sea Level Pressure  
Sea Level Pressure 29.86 in    
Wind  
Wind Speed 16 mph (NW)    
Max Wind Speed 39 mph    
Max Gust Speed 45 mph    
Visibility 10 miles    
Events      
T = Trace of Precipitation, MM = Missing Value Source: NWS Daily Summary

Daily Weather History Graph

Daily Weather History Graph

Search for Another Location

Airport or City:

Trip Planner

Search our weather history database for the weather conditions in past years. The results will help you decide how hot, cold, wet, or windy it might be!

Date:

Astronomy

Apr. 11, 2013 Rise Set
Actual Time 6:15 AM MDT 7:20 PM MDT
Civil Twilight 5:47 AM MDT 7:48 PM MDT
Nautical Twilight 5:14 AM MDT 8:21 PM MDT
Astronomical Twilight 4:40 AM MDT 8:55 PM MDT
Moon 6:48 AM MDT (4/11) 8:56 PM MDT (4/11)
Length of Visible Light 14h 00m
Length of Day
13h 05m
New Moon, 2% of the Moon is Illuminated
Apr 11
New Moon
Apr 18
First Quarter
Apr 25
Full
May 2
Last Quarter
May 9
New

Hourly Weather History & Observations

Time (MDT) Temp. Windchill Dew Point Humidity Pressure Visibility Wind Dir Wind Speed Gust Speed Precip Events Conditions
12:53 AM 19.0 °F 6.1 °F 12.9 °F 77% 30.02 in 10.0 mi West 12.7 mph - N/A   Clear
1:53 AM 19.0 °F 5.6 °F 12.9 °F 77% 29.98 in 10.0 mi West 13.8 mph - N/A   Clear
2:53 AM 19.0 °F 6.8 °F 12.9 °F 77% 29.92 in 10.0 mi WNW 11.5 mph - N/A   Clear
3:53 AM 18.0 °F 5.4 °F 12.0 °F 78% 29.89 in 10.0 mi WNW 11.5 mph - N/A   Clear
4:53 AM 15.1 °F 3.3 °F 10.9 °F 84% 29.88 in 10.0 mi West 9.2 mph - N/A   Clear
5:53 AM 17.1 °F 5.8 °F 10.9 °F 77% 29.88 in 10.0 mi West 9.2 mph - N/A   Clear
6:53 AM 17.1 °F 6.6 °F 12.0 °F 81% 29.87 in 10.0 mi West 8.1 mph - N/A   Clear
7:53 AM 25.0 °F 16.3 °F 15.1 °F 66% 29.87 in 10.0 mi WNW 8.1 mph - N/A   Clear
8:53 AM 30.9 °F 22.2 °F 16.0 °F 54% 29.85 in 10.0 mi NW 10.4 mph - N/A   Clear
9:53 AM 36.0 °F 29.0 °F 17.1 °F 46% 29.84 in 10.0 mi NW 9.2 mph - N/A   Clear
10:53 AM 39.2 °F 32.5 °F 17.6 °F 42% 29.78 in 10.0 mi NNW 10.4 mph 16.1 mph N/A   Clear
11:53 AM 42.1 °F 34.5 °F 18.0 °F 38% 29.83 in 10.0 mi NNW 15.0 mph 24.2 mph N/A   Clear
12:53 PM 46.9 °F - 19.0 °F 33% 29.80 in 10.0 mi NW 26.5 mph 34.5 mph N/A   Partly Cloudy
1:53 PM 48.9 °F - 19.9 °F 32% 29.78 in 10.0 mi NW 28.8 mph 36.8 mph N/A   Mostly Cloudy
2:53 PM 50.0 °F - 23.0 °F 35% 29.77 in 10.0 mi NW 29.9 mph 40.3 mph N/A   Clear
3:53 PM 51.1 °F - 27.0 °F 39% 29.77 in 10.0 mi NW 29.9 mph 36.8 mph N/A   Clear
4:53 PM 50.0 °F - 26.1 °F 39% 29.79 in 10.0 mi NNW 26.5 mph 36.8 mph N/A   Clear
5:53 PM 50.0 °F - 28.9 °F 44% 29.81 in 10.0 mi NNW 29.9 mph 40.3 mph N/A   Clear
6:53 PM 46.9 °F - 30.0 °F 52% 29.82 in 10.0 mi NNW 28.8 mph 36.8 mph N/A   Partly Cloudy
7:53 PM 43.0 °F 34.5 °F 30.0 °F 60% 29.83 in 10.0 mi NNW 19.6 mph 27.6 mph N/A   Clear
8:53 PM 39.9 °F 31.4 °F 30.0 °F 68% 29.86 in 10.0 mi North 16.1 mph - N/A   Clear
9:53 PM 35.1 °F 26.9 °F 28.9 °F 78% 29.88 in 9.0 mi NNW 11.5 mph - N/A   Clear
10:53 PM 30.9 °F 22.8 °F 28.0 °F 89% 29.91 in 10.0 mi NNW 9.2 mph - N/A   Clear
11:53 PM 27.0 °F 20.5 °F 24.1 °F 89% 29.93 in 10.0 mi NW 5.8 mph - N/A   Clear